Zurück zum Katalog

STARLINK-37190

AktivKommunikationSSO
NORAD 68396·PAYLOAD·🇺🇸 United States

Gestartet Mar 26, 2026 von Vandenberg Space Force Base

Loading…

Nächste Überflüge (nächste 24 Stunden)

TLE

AktuellSource: CelesTrak SupGP

Epoche: Sep 15, 2026, 04:02 UTC

1 68396C 26063S   26258.16854167  .00000714  00000+0  22170-4 0  2585
2 68396  97.2854  39.1666 0001419  83.9138 340.9545 15.33431537    13

Verfolge STARLINK-37190 in Echtzeit mit AllMySat

Download on the App Store